CAPE
nan nan nan nan nan nan nan nan nan nan nan nan nan nan nan nan nan nan nan nan nan nan nan nan nan nan nan nan nan nan 2 6 13 13 23 34 44 44 56 68 68 76 84 90 90 93 104 120 120 147 179 201 201 201 203 218 218 232 256 264 264 266 254 253 253 262 290 308 321 321 333 333 336 336 352 345 354 354 334 319 319 290 282 269 269 269
nan nan nan nan nan nan nan nan nan nan nan nan nan nan nan nan nan nan nan nan nan nan nan nan nan nan nan nan nan nan 3 11 21 21 34 45 56 56 66 79 79 87 98 99 99 101 113 133 133 168 196 202 197 197 221 246 246 258 269 267 267 253 242 248 248 267 295 301 317 317 337 343 358 358 350 354 354 354 334 310 310 295 292 300 300 294
nan nan nan nan nan nan nan nan nan nan nan nan nan nan nan nan nan nan nan nan nan nan nan nan nan nan nan nan nan nan 5 17 32 32 43 56 63 63 75 84 84 92 100 106 106 106 118 147 147 186 210 205 210 210 225 252 252 271 275 262 262 232 232 257 257 262 279 302 320 320 344 355 348 348 349 339 308 308 309 293 293 310 322 333 333 332
nan nan nan nan nan nan nan nan nan nan nan nan nan nan nan nan nan nan nan nan nan nan nan nan nan nan nan nan nan nan 12 30 48 48 59 66 69 69 74 83 83 90 102 109 109 116 134 170 170 189 213 204 211 211 217 231 231 250 254 253 253 249 267 292 292 283 278 279 310 310 330 346 350 350 333 306 285 285 283 303 303 334 359 374 374 387
nan nan nan nan nan nan nan nan nan nan nan nan nan nan nan nan nan nan nan nan nan nan nan nan nan nan nan nan nan nan 22 47 60 60 69 73 73 73 71 76 76 86 99 113 113 134 158 183 183 200 214 205 201 201 199 202 202 199 223 259 259 282 312 321 321 309 295 269 271 271 295 301 328 328 307 285 284 284 290 323 323 349 381 403 403 420
nan nan nan nan nan nan nan nan nan nan nan nan nan nan nan nan nan nan nan nan nan nan nan nan nan nan nan nan 1 1 33 55 66 66 70 69 67 67 67 74 74 85 99 121 121 158 194 216 216 230 217 214 196 196 184 161 161 166 186 240 240 301 324 327 327 299 286 284 282 282 304 309 317 317 322 311 306 306 301 337 337 386 400 426 426 433
nan nan nan nan nan nan nan nan nan nan nan nan nan nan nan nan nan nan nan nan nan nan nan nan nan nan nan nan 18 18 39 45 47 47 52 57 59 59 61 66 66 83 107 144 144 195 216 242 242 237 219 226 210 210 190 161 161 143 144 225 225 310 348 314 314 294 286 285 305 305 313 321 335 335 328 320 321 321 332 367 367 418 456 452 452 447
nan nan nan nan nan nan nan nan nan nan nan nan nan nan nan nan nan nan nan nan nan nan nan nan nan nan nan nan nan nan nan nan nan nan nan 0 11 11 32 64 64 112 157 180 180 184 170 168 168 163 166 186 198 198 217 215 215 220 207 216 216 264 276 250 250 255 294 321 347 347 344 344 348 348 346 353 352 352 359 362 362 408 465 506 506 535
nan nan 1 0 0 nan nan nan nan nan nan nan nan nan nan nan nan nan nan nan nan nan nan nan nan nan nan nan nan nan nan 1 nan nan nan nan nan nan 3 56 56 112 156 158 158 142 126 129 129 126 124 146 166 166 175 190 190 217 217 206 206 216 233 241 241 260 287 338 375 375 368 357 365 365 381 400 389 389 369 359 359 376 416 493 493 537
1 2 0 nan nan nan nan nan nan nan nan nan nan nan nan nan nan nan nan nan nan nan nan nan nan nan nan nan nan nan nan 1 20 20 28 4 29 29 23 53 53 92 119 116 116 112 101 102 102 97 121 128 142 142 156 150 150 166 184 193 193 201 206 226 226 250 291 349 392 392 394 374 365 365 393 389 403 403 385 370 370 364 390 448 448 508
0 nan nan nan nan nan 0 nan nan nan nan nan nan nan nan nan nan nan nan nan nan nan nan nan nan nan nan nan nan nan nan nan nan nan nan nan 11 11 39 59 59 86 81 73 73 66 77 86 86 98 111 117 125 125 132 146 146 149 156 164 164 183 198 217 217 245 291 360 389 389 382 376 365 365 372 382 399 399 417 394 394 384 388 430 430 489
nan nan nan nan nan nan 1 0 nan nan nan nan nan nan nan nan nan nan nan nan nan nan nan nan nan nan nan nan nan nan nan nan nan nan nan nan nan nan 11 7 7 8 2 3 3 7 38 64 64 77 71 61 107 107 112 98 98 143 149 167 167 184 209 220 220 237 275 335 353 353 358 354 347 347 340 350 380 380 417 440 440 416 410 456 456 466
nan nan nan nan nan 0 nan nan nan nan nan nan nan nan nan nan nan nan nan nan nan nan nan nan nan nan nan nan nan nan nan nan nan nan nan nan nan nan nan nan nan nan nan nan nan nan nan 23 23 36 51 49 76 76 104 100 100 123 150 157 157 172 185 193 193 211 237 279 286 286 289 298 298 298 293 329 360 360 385 433 433 428 439 440 440 470
nan nan nan 0 0 nan nan nan nan nan nan nan nan nan nan nan nan nan nan nan nan nan nan nan nan 0 nan nan nan nan nan nan nan nan nan nan nan nan nan nan nan nan nan nan nan nan nan nan nan nan 7 15 36 36 48 83 83 120 138 154 154 155 157 163 163 166 191 223 235 235 228 233 246 246 256 274 301 301 358 399 399 416 440 451 451 471
nan nan nan nan nan nan nan nan nan nan nan nan nan nan nan nan nan nan nan nan nan nan 0 0 0 nan nan nan nan nan nan nan 9 9 11 nan nan nan nan nan nan nan nan nan nan nan nan nan nan nan nan nan nan nan 16 61 61 131 135 142 142 142 141 147 147 149 149 167 169 169 173 177 177 177 195 213 251 251 278 328 328 376 414 437 437 465
nan 0 nan 1 1 0 nan nan nan nan nan nan nan nan nan nan nan nan nan nan nan nan nan nan nan nan nan nan nan nan nan 2 11 11 nan nan nan nan nan nan nan nan nan nan nan nan nan nan nan nan nan nan 27 27 70 103 103 139 132 136 136 134 137 132 132 131 134 131 129 129 120 127 125 125 149 162 185 185 199 237 237 296 361 414 414 464
nan nan 1 2 2 0 0 nan nan nan nan nan nan nan nan nan nan nan nan 3 3 3 nan nan nan nan nan nan nan nan nan 0 nan nan nan nan nan nan nan nan nan nan nan nan nan nan nan nan nan nan nan 9 55 55 78 108 108 127 135 139 139 141 136 134 134 123 118 114 109 109 106 106 107 107 120 118 135 135 135 167 167 206 276 356 356 408
nan 0 1 1 1 0 0 1 0 0 0 nan 0 0 1 2 4 4 8 6 6 4 1 nan nan nan nan nan nan nan nan nan nan nan nan nan nan nan nan nan nan nan nan nan nan nan nan nan nan nan nan 34 62 62 78 99 99 121 140 139 139 139 131 120 120 120 121 122 116 116 129 115 121 121 112 112 104 104 108 125 125 157 212 303 303 364
0 1 1 2 2 3 4 0 nan nan 0 0 0 0 3 7 8 8 8 10 10 7 3 1 1 nan nan 3 3 3 nan nan nan nan nan nan nan nan nan nan nan nan nan nan nan nan nan nan nan nan 25 35 51 51 86 102 102 122 129 131 131 125 121 116 116 118 132 146 167 167 171 168 158 158 141 116 105 105 92 99 99 113 161 217 217 278
1 3 3 5 5 6 7 6 2 2 nan nan nan nan 0 3 8 8 11 15 15 16 11 6 6 6 4 3 nan nan nan nan nan nan nan nan nan nan nan nan nan nan nan nan nan nan nan nan nan nan 6 22 52 52 77 99 99 108 109 111 111 110 108 112 112 130 144 183 191 191 217 205 179 179 153 124 104 104 96 91 91 93 125 189 189 219
2 6 5 3 3 3 1 nan nan nan nan 2 0 0 2 3 6 6 9 15 15 14 12 7 7 10 7 1 nan nan nan nan nan nan nan nan nan nan nan nan nan nan nan nan nan nan nan nan nan nan nan 20 39 39 63 73 73 82 93 97 97 98 103 117 117 126 134 147 160 160 172 174 168 168 148 131 116 116 108 103 103 102 120 165 165 203
nan nan nan nan nan nan nan nan nan nan 1 3 0 0 0 1 5 5 8 10 10 15 17 11 11 4 3 0 nan nan nan nan nan nan nan nan nan nan nan nan nan nan nan nan nan nan nan nan nan nan nan 21 32 32 44 54 54 63 79 84 84 91 102 108 108 107 108 110 118 118 125 144 147 147 146 145 135 135 127 124 124 122 149 191 191 223
nan nan nan nan nan nan nan nan nan nan 5 3 1 1 2 2 9 9 16 17 17 14 11 5 5 1 0 nan nan nan nan nan nan nan nan nan nan nan nan nan nan nan nan nan nan nan nan nan nan nan nan 15 15 15 29 39 39 52 64 78 78 85 92 88 88 90 89 92 99 99 110 122 135 135 149 151 148 148 141 135 135 141 170 208 208 245
nan nan nan nan nan nan nan nan nan nan 2 1 2 2 3 3 16 16 25 21 21 19 14 6 6 0 nan nan nan nan nan nan nan nan nan nan nan nan nan nan nan nan nan nan nan nan nan nan nan nan nan 4 8 8 18 29 29 38 53 66 66 73 74 79 79 80 84 95 99 99 112 119 127 127 139 143 140 140 139 142 142 143 161 183 183 204
nan nan nan nan nan nan nan 0 4 4 1 nan 1 1 0 13 59 59 47 28 28 22 14 6 6 0 nan nan nan nan nan nan nan nan nan nan nan nan nan nan nan nan nan nan nan nan nan nan nan nan nan nan 6 6 9 18 18 31 44 51 51 61 68 71 71 81 82 89 103 103 112 121 122 122 127 126 129 129 135 134 134 139 152 157 157 175
0 8 14 24 24 78 130 147 140 140 66 0 nan nan nan 5 13 13 14 17 17 17 15 10 10 4 nan nan nan nan nan nan nan nan nan 1 nan nan nan nan nan nan nan nan nan nan nan nan nan nan nan nan 1 1 5 10 10 20 31 37 37 47 59 68 68 74 87 87 101 101 109 112 113 113 114 117 117 117 122 124 124 125 143 145 145 142
92 93 128 175 175 173 135 105 95 95 103 66 0 0 nan 3 13 13 17 14 14 15 26 31 31 7 nan nan nan nan nan nan nan nan nan nan 0 0 nan nan nan nan nan nan nan nan nan nan nan nan nan nan nan nan 1 7 7 9 17 25 25 36 53 67 67 74 84 88 97 97 105 108 104 104 102 105 110 110 109 106 106 109 134 140 140 157
69 90 151 163 163 111 79 74 75 75 66 66 72 72 25 11 12 12 12 5 5 10 29 33 33 9 nan nan nan nan nan nan nan nan nan nan 0 0 nan nan nan nan nan nan nan nan 7 nan nan nan nan nan nan nan nan 4 4 6 8 10 10 25 45 56 56 69 79 88 95 95 99 98 101 101 98 98 98 98 97 93 93 103 122 112 112 73
66 96 112 90 90 72 65 58 54 54 43 38 46 46 22 2 7 7 3 0 0 10 36 33 33 13 3 nan nan nan nan nan nan nan nan nan nan nan nan nan nan nan 1 2 2 nan nan nan nan nan nan nan nan nan nan 1 1 3 6 8 8 13 26 45 45 59 74 80 88 88 93 93 93 93 96 95 95 95 94 91 91 95 77 55 55 30
nan 14 21 27 27 50 24 5 13 13 26 26 29 29 17 nan nan nan nan 0 0 24 43 34 34 12 1 nan nan nan nan nan nan nan nan nan nan nan nan nan nan 0 5 4 4 nan nan nan nan nan nan nan nan nan nan nan nan nan nan 3 3 4 13 31 31 45 61 79 81 81 86 92 92 92 93 97 97 97 97 94 94 72 25 0 0 0
nan nan nan nan nan nan nan nan nan nan 3 14 14 14 0 nan nan nan nan nan nan 27 34 23 23 8 1 1 nan nan nan nan nan nan nan nan nan nan nan nan nan nan 5 6 6 0 nan nan nan nan nan nan nan nan nan nan nan nan nan nan nan nan 3 20 20 33 47 61 76 76 78 84 86 86 87 90 95 95 105 118 118 92 16 nan nan nan
nan nan nan nan nan nan nan nan nan nan nan nan nan nan nan nan nan nan nan nan nan nan nan nan nan nan nan 2 3 3 1 nan 1 1 0 nan nan nan nan nan nan nan nan 0 0 1 nan nan nan nan nan nan nan nan nan nan nan nan nan nan nan nan nan 1 1 3 4 22 37 37 44 48 51 51 57 65 83 83 105 127 127 128 20 nan nan nan
nan nan nan nan nan nan nan nan nan nan nan nan nan nan nan nan nan nan nan nan nan nan nan nan nan nan nan nan 1 1 0 nan 4 4 10 nan nan nan nan nan nan nan nan 0 0 1 2 1 1 nan nan nan nan nan nan nan nan nan nan nan nan nan nan nan nan nan nan nan nan nan 3 6 13 13 33 47 69 69 102 123 123 125 103 42 42 31
nan nan nan nan nan nan nan nan nan nan nan nan nan nan nan nan nan nan nan nan nan nan nan nan nan nan nan nan 1 1 nan nan 3 3 12 nan nan nan nan nan nan 2 3 3 3 4 3 2 2 2 0 nan nan nan nan nan nan nan nan nan nan nan nan nan nan nan nan nan nan nan nan nan nan nan 0 22 50 50 84 116 116 118 99 69 69 43
nan nan nan nan nan nan nan nan nan nan nan nan nan nan nan nan nan nan nan nan nan nan nan nan nan nan nan nan 1 1 nan nan nan nan 12 nan nan nan nan 0 0 3 8 10 10 9 5 4 4 8 5 1 nan nan nan nan nan nan nan nan nan nan nan nan nan nan nan nan nan nan nan nan nan nan nan 2 32 32 70 89 89 87 80 72 72 36
nan nan nan nan nan nan nan nan nan nan nan nan nan nan nan nan nan nan nan nan nan nan nan nan nan nan nan nan nan nan nan nan nan nan 3 nan nan nan nan 3 3 8 14 16 16 12 8 7 7 11 12 3 0 0 nan nan nan nan nan nan nan nan nan nan nan nan nan nan nan nan nan nan nan nan nan 4 23 23 45 50 50 52 52 49 49 46
nan nan nan nan nan nan nan nan nan nan nan nan nan nan nan nan nan nan nan nan nan nan nan nan nan nan nan nan nan nan nan nan nan nan nan nan nan nan 3 11 11 23 21 18 18 15 12 10 10 9 6 2 0 0 nan nan nan nan nan nan nan nan nan nan nan nan nan nan nan nan nan nan nan nan nan 2 2 2 6 14 14 15 21 18 18 23
nan nan nan nan nan nan nan nan nan nan nan nan nan nan nan nan nan nan nan nan nan nan nan nan nan nan nan nan nan nan nan nan nan nan nan nan 1 1 12 17 17 20 20 20 20 18 17 13 13 11 6 2 3 3 3 1 1 nan nan nan nan nan nan nan nan nan nan nan nan nan nan nan nan nan nan nan nan nan nan nan nan 6 15 10 10 16
nan nan nan nan nan nan nan nan nan nan nan nan nan nan nan nan nan nan nan nan nan nan nan nan nan nan nan nan nan nan nan nan nan nan nan nan nan nan 3 6 6 6 6 13 13 19 20 20 20 16 11 5 2 2 0 0 0 nan nan nan nan nan nan nan nan nan nan nan nan nan nan nan nan nan nan nan nan nan nan nan nan 2 nan nan nan 0
nan nan nan nan nan nan nan nan nan nan nan nan nan nan nan nan nan nan nan nan nan nan nan nan nan nan nan nan nan nan nan nan nan nan nan nan nan nan nan nan nan nan 0 4 4 11 19 20 20 19 15 6 3 3 1 nan nan nan 1 nan nan nan nan nan nan nan nan nan nan nan nan nan nan nan nan nan nan nan 1 nan nan 0 nan nan nan nan
nan nan nan nan nan nan nan nan nan nan nan nan nan nan nan nan nan nan nan nan nan nan nan nan nan nan nan nan nan nan nan nan nan nan nan nan nan nan nan nan nan nan nan nan nan 1 6 7 7 9 5 2 2 2 1 nan nan 0 2 nan nan nan nan nan nan 0 nan nan nan nan 2 0 1 1 nan nan nan nan nan nan nan nan nan nan nan nan
nan nan nan nan nan nan nan nan nan nan nan nan nan nan nan nan nan nan nan nan nan nan nan nan nan nan nan nan nan nan nan nan nan nan nan nan nan nan nan nan nan nan nan nan nan nan nan 0 0 0 nan nan nan nan nan nan nan nan 0 nan nan nan nan nan nan nan nan nan nan nan 3 2 0 0 1 nan nan nan nan nan nan nan 2 nan nan nan
nan nan nan nan nan nan nan nan nan nan nan nan nan nan nan nan nan nan nan nan nan nan nan nan nan nan nan nan nan nan nan nan nan nan nan nan nan nan nan nan nan nan nan nan nan nan nan nan nan nan nan nan nan nan nan nan nan nan nan nan nan 0 nan nan nan nan nan nan nan nan nan nan 0 0 nan nan nan nan nan nan nan 1 1 nan nan nan
nan nan nan nan nan nan nan nan nan nan nan nan nan nan nan nan nan nan nan nan nan nan nan nan nan nan nan nan nan nan nan nan nan nan nan nan nan nan nan nan nan nan nan nan nan nan nan nan nan nan nan nan nan nan nan nan nan nan nan nan nan nan 0 0 0 nan nan nan nan nan nan nan nan nan nan nan nan nan nan nan nan nan nan nan nan nan
nan nan nan nan nan nan nan nan nan nan nan nan nan nan nan nan nan nan nan nan nan nan nan nan nan nan nan 0 nan nan nan nan nan nan nan nan nan nan nan nan nan nan nan nan nan nan nan nan nan nan nan nan nan nan nan nan nan nan nan nan nan 0 0 0 0 0 0 nan nan nan nan nan nan nan nan nan nan nan nan nan nan nan nan nan nan nan
nan nan nan nan nan nan nan nan nan nan nan nan nan nan nan nan nan nan nan nan nan nan nan nan nan nan nan 2 nan nan nan nan nan nan nan nan nan nan nan nan nan nan nan nan nan nan nan nan nan nan nan nan nan nan nan nan nan nan nan nan nan 2 nan nan nan nan nan nan nan nan nan nan nan nan nan nan nan nan nan nan nan nan nan nan nan nan
nan nan nan nan nan nan nan nan nan nan nan nan nan nan nan nan nan nan nan nan nan nan nan nan nan nan nan nan nan nan nan nan nan nan nan nan nan nan nan nan nan nan nan nan nan nan nan nan nan nan nan nan nan nan nan nan nan nan nan 4 4 2 nan nan nan nan nan nan nan nan nan nan nan nan nan nan nan nan nan nan nan nan nan nan nan nan
nan nan nan nan nan nan nan nan nan nan nan nan nan nan nan nan nan nan nan nan nan nan nan nan nan nan nan nan nan nan nan nan nan nan nan nan nan nan nan nan nan nan nan nan nan nan nan nan nan nan nan nan nan nan nan nan nan 0 9 5 5 1 nan nan nan nan nan nan nan nan nan nan nan nan nan nan nan nan nan nan nan nan nan nan nan nan
nan nan nan nan nan nan nan nan nan nan nan nan nan nan nan nan 3 3 nan nan nan nan nan nan nan nan nan nan nan nan nan nan nan nan nan nan nan nan nan nan nan nan nan nan nan nan nan nan nan nan nan nan nan nan nan 1 1 1 0 1 1 0 nan nan nan nan nan nan nan nan nan nan nan nan nan nan nan nan nan nan nan nan nan nan nan nan
nan nan nan nan nan nan nan nan nan nan nan nan nan nan nan nan nan nan nan nan nan nan nan nan nan nan nan nan nan nan nan nan nan nan nan nan nan nan nan nan nan nan nan nan nan nan nan nan nan nan nan nan nan nan nan nan nan nan nan nan nan nan nan nan nan nan nan nan nan nan nan nan nan nan nan nan nan nan nan nan nan nan nan nan nan nan
nan nan nan nan nan nan nan nan nan nan nan nan nan nan nan nan nan nan nan nan nan nan nan nan nan nan nan nan nan nan nan nan nan nan nan nan nan nan nan nan nan nan nan nan nan nan nan nan nan nan nan nan nan nan nan nan nan nan nan nan nan nan nan nan nan nan nan 0 nan nan nan nan nan nan nan nan nan nan nan nan nan nan nan nan nan nan
CIN
nan nan nan nan nan nan nan nan nan nan nan nan nan nan nan nan nan nan nan nan nan nan nan nan nan nan nan nan nan nan -0 -0 -0 -0 -0 -0 -0 -0 -0 -0 -0 -0 -0 -0 -0 -0 -0 -0 -0 -0 -0 -0 -0 -0 -0 -0 -0 -0 -0 -0 -0 -0 -0 -0 -0 -0 -0 -0 -0 -0 -0 -0 -0 -0 -0 -0 -0 -0 -0 -0 -0 -0 -0 -0 -0 -0
nan nan nan nan nan nan nan nan nan nan nan nan nan nan nan nan nan nan nan nan nan nan nan nan nan nan nan nan nan nan -0 -0 -0 -0 -0 -0 -0 -0 -0 -0 -0 -0 -0 -0 -0 -0 -0 -0 -0 -0 -0 -0 -0 -0 -0 -0 -0 -0 -0 -0 -0 -0 -0 -0 -0 -0 -0 -0 -0 -0 -0 -0 -0 -0 -0 -0 -0 -0 -0 -0 -0 -0 -0 -0 -0 -0
nan nan nan nan nan nan nan nan nan nan nan nan nan nan nan nan nan nan nan nan nan nan nan nan nan nan nan nan nan nan -0 -0 -0 -0 -0 -0 -0 -0 -0 -0 -0 -0 -0 -0 -0 -0 -0 -0 -0 -0 -0 -0 -0 -0 -0 -0 -0 -0 -0 -0 -0 -0 -0 -0 -0 -0 -0 -0 -0 -0 -0 -0 -0 -0 -0 -0 -0 -0 -0 -0 -0 -0 -0 -0 -0 -0
nan nan nan nan nan nan nan nan nan nan nan nan nan nan nan nan nan nan nan nan nan nan nan nan nan nan nan nan nan nan -0 -0 -0 -0 -0 -0 -0 -0 -0 -0 -0 -0 -0 -0 -0 -0 -0 -0 -0 -0 -0 -0 -0 -0 -0 -0 -0 -0 -0 -0 -0 -0 -0 -0 -0 -0 -0 -0 -0 -0 -0 -0 -0 -0 -0 -0 -0 -0 -0 -0 -0 -0 -0 -0 -0 -0
nan nan nan nan nan nan nan nan nan nan nan nan nan nan nan nan nan nan nan nan nan nan nan nan nan nan nan nan nan nan -0 -0 -0 -0 -0 -0 -0 -0 -0 -0 -0 -0 -0 -0 -0 -0 -0 -0 -0 -0 -0 -0 -0 -0 -0 -0 -0 -0 -0 -0 -0 -0 -0 -0 -0 -0 -0 -0 -0 -0 -0 -0 -0 -0 -0 -0 -0 -0 -0 -0 -0 -0 -0 -0 -0 -0
nan nan nan nan nan nan nan nan nan nan nan nan nan nan nan nan nan nan nan nan nan nan nan nan nan nan nan nan -8 -8 -0 -0 -0 -0 -0 -0 -0 -0 -0 -0 -0 -0 -0 -0 -0 -0 -0 -0 -0 -0 -0 -0 -0 -0 -0 -1 -1 -6 -0 -0 -0 -0 -0 -0 -0 -0 -0 -0 -0 -0 -0 -0 -0 -0 -0 -0 -0 -0 -0 -0 -0 -0 -0 -0 -0 -0
nan nan nan nan nan nan nan nan nan nan nan nan nan nan nan nan nan nan nan nan nan nan nan nan nan nan nan nan -1 -1 -0 -0 -0 -0 -0 -0 -0 -0 -0 -0 -0 -0 -0 -0 -0 -0 -0 -0 -0 -0 -0 -0 -0 -0 -0 -0 -0 -8 -7 -0 -0 -0 -0 -0 -0 -1 -2 -2 -1 -1 -0 -0 -0 -0 -0 -0 -0 -0 -0 -0 -0 -0 -0 -0 -0 -0
nan nan nan nan nan nan nan nan nan nan nan nan nan nan nan nan nan nan nan nan nan nan nan nan nan nan nan nan nan nan nan nan nan nan nan -0 -0 -0 -0 -0 -0 -0 -0 -0 -0 -0 -0 -0 -0 -0 -0 -0 -0 -0 -0 -0 -0 -0 -0 -0 -0 -0 -0 -0 -0 -0 -0 -1 -2 -2 -1 -0 -0 -0 -0 -0 -0 -0 -0 -0 -0 -0 -0 -0 -0 -0
nan nan -11 -10 -10 nan nan nan nan nan nan nan nan nan nan nan nan nan nan nan nan nan nan nan nan nan nan nan nan nan nan -7 nan nan nan nan nan nan -0 -0 -0 -0 -0 -0 -0 -0 -0 -0 -0 -1 -1 -0 -0 -0 -0 -0 -0 -0 -0 -0 -0 -0 -0 -0 -0 -0 -0 -0 -1 -1 -0 -0 -0 -0 -0 -0 -0 -0 -0 -0 -0 -0 -0 -0 -0 -0
-15 -10 -10 nan nan nan nan nan nan nan nan nan nan nan nan nan nan nan nan nan nan nan nan nan nan nan nan nan nan nan nan -9 -0 -0 -0 -0 -0 -0 -0 -0 -0 -0 -0 -0 -0 -0 -0 -0 -0 -1 -0 -1 -0 -0 -0 -0 -0 -0 -0 -0 -0 -0 -0 -0 -0 -0 -0 -0 -0 -0 -0 -0 -0 -0 -0 -0 -0 -0 -0 -0 -0 -0 -0 -0 -0 -0
-17 nan nan nan nan nan -16 nan nan nan nan nan nan nan nan nan nan nan nan nan nan nan nan nan nan nan nan nan nan nan nan nan nan nan nan nan -0 -0 -0 -0 -0 -0 -0 -0 -0 -0 -0 -0 -0 -0 -0 -0 -0 -0 -0 -0 -0 -0 -0 -0 -0 -0 -0 -0 -0 -0 -0 -0 -0 -0 -0 -0 -0 -0 -0 -0 -0 -0 -0 -0 -0 -0 -0 -0 -0 -0
nan nan nan nan nan nan -16 -20 nan nan nan nan nan nan nan nan nan nan nan nan nan nan nan nan nan nan nan nan nan nan nan nan nan nan nan nan nan nan -18 -18 -18 -11 -15 -10 -10 -8 -0 -0 -0 -0 -0 -0 -0 -0 -0 -0 -0 -0 -0 -0 -0 -0 -0 -0 -0 -0 -0 -0 -0 -0 -0 -0 -0 -0 -0 -0 -0 -0 -0 -0 -0 -0 -0 -0 -0 -0
nan nan nan nan nan -22 nan nan nan nan nan nan nan nan nan nan nan nan nan nan nan nan nan nan nan nan nan nan nan nan nan nan nan nan nan nan nan nan nan nan nan nan nan nan nan nan nan -0 -0 -0 -0 -0 -0 -0 -0 -0 -0 -0 -0 -0 -0 -0 -0 -0 -0 -0 -0 -0 -0 -0 -0 -0 -0 -0 -0 -0 -0 -0 -0 -0 -0 -0 -0 -0 -0 -0
nan nan nan -17 -17 nan nan nan nan nan nan nan nan nan nan nan nan nan nan nan nan nan nan nan nan -16 nan nan nan nan nan nan nan nan nan nan nan nan nan nan nan nan nan nan nan nan nan nan nan nan -4 -4 -3 -3 -4 -0 -0 -0 -0 -0 -0 -0 -0 -0 -0 -0 -0 -0 -0 -0 -0 -0 -0 -0 -0 -0 -0 -0 -0 -0 -0 -0 -0 -0 -0 -0
nan nan nan nan nan nan nan nan nan nan nan nan nan nan nan nan nan nan nan nan nan nan -12 -14 -14 nan nan nan nan nan nan nan -9 -9 -2 nan nan nan nan nan nan nan nan nan nan nan nan nan nan nan nan nan nan nan -10 -0 -0 -0 -0 -0 -0 -0 -0 -0 -0 -0 -0 -0 -0 -0 -0 -0 -0 -0 -0 -0 -0 -0 -0 -0 -0 -0 -0 -0 -0 -0
nan -22 nan -13 -13 -15 nan nan nan nan nan nan nan nan nan nan nan nan nan nan nan nan nan nan nan nan nan nan nan nan nan -3 -0 -0 nan nan nan nan nan nan nan nan nan nan nan nan nan nan nan nan nan nan -2 -2 -0 -0 -0 -0 -0 -0 -0 -0 -0 -0 -0 -0 -0 -0 -0 -0 -0 -0 -0 -0 -0 -0 -0 -0 -0 -0 -0 -0 -0 -0 -0 -0
nan nan -10 -7 -7 -11 -14 nan nan nan nan nan nan nan nan nan nan nan nan -12 -12 -13 nan nan nan nan nan nan nan nan nan -1 nan nan nan nan nan nan nan nan nan nan nan nan nan nan nan nan nan nan nan -16 -0 -0 -0 -0 -0 -0 -0 -0 -0 -0 -0 -0 -0 -0 -0 -0 -0 -0 -0 -0 -0 -0 -0 -0 -0 -0 -0 -0 -0 -0 -0 -0 -0 -0
nan -15 -13 -10 -10 -13 -12 -11 -13 -13 -14 nan -14 -14 -10 -14 -12 -12 -7 -17 -17 -24 -30 nan nan nan nan nan nan nan nan nan nan nan nan nan nan nan nan nan nan nan nan nan nan nan nan nan nan nan nan -0 -0 -0 -0 -0 -0 -0 -0 -0 -0 -0 -0 -0 -0 -0 -0 -0 -0 -0 -0 -0 -0 -0 -0 -0 -0 -0 -0 -0 -0 -0 -0 -0 -0 -0
-15 -16 -13 -9 -9 -9 -9 -19 nan nan -10 -11 -9 -9 -4 -4 -9 -9 -12 -14 -14 -23 -28 -26 -26 nan nan -18 -21 -21 nan nan nan nan nan nan nan nan nan nan nan nan nan nan nan nan nan nan nan nan -3 -0 -0 -0 -0 -0 -0 -0 -0 -0 -0 -0 -0 -0 -0 -0 -0 -0 -0 -0 -0 -0 -0 -0 -0 -0 -0 -0 -0 -0 -0 -0 -0 -0 -0 -0
-14 -12 -11 -9 -9 -7 -6 -7 -9 -9 nan nan nan nan -20 -16 -10 -10 -11 -10 -10 -14 -19 -22 -22 -18 -18 -18 nan nan nan nan nan nan nan nan nan nan nan nan nan nan nan nan nan nan nan nan nan nan -13 -1 -0 -0 -0 -0 -0 -0 -0 -0 -0 -0 -0 -0 -0 -0 -0 -0 -0 -0 -0 -0 -0 -0 -0 -0 -0 -0 -0 -0 -0 -0 -0 -0 -0 -0
-18 -9 -13 -13 -13 -6 -5 nan nan nan nan -5 -24 -24 -21 -15 -12 -12 -13 -11 -11 -14 -16 -24 -24 -15 -17 -25 nan nan nan nan nan nan nan nan nan nan nan nan nan nan nan nan nan nan nan nan nan nan nan -0 -0 -0 -0 -0 -0 -0 -0 -0 -0 -0 -0 -0 -0 -0 -0 -0 -0 -0 -0 -0 -0 -0 -0 -0 -0 -0 -0 -0 -0 -0 -0 -0 -0 -0
nan nan nan nan nan nan nan nan nan nan -5 -1 -0 -0 -21 -13 -10 -10 -11 -15 -15 -14 -14 -18 -18 -29 -30 -30 nan nan nan nan nan nan nan nan nan nan nan nan nan nan nan nan nan nan nan nan nan nan nan -0 -0 -0 -0 -0 -0 -0 -0 -0 -0 -0 -0 -0 -0 -0 -0 -0 -0 -0 -0 -0 -0 -0 -0 -0 -0 -0 -0 -0 -0 -0 -0 -0 -0 -0
nan nan nan nan nan nan nan nan nan nan -1 -0 -0 -0 -11 -14 -8 -8 -7 -11 -11 -18 -22 -29 -29 -44 -49 nan nan nan nan nan nan nan nan nan nan nan nan nan nan nan nan nan nan nan nan nan nan nan nan -0 -0 -0 -0 -0 -0 -0 -0 -0 -0 -0 -0 -0 -0 -0 -0 -0 -0 -0 -0 -0 -0 -0 -0 -0 -0 -0 -0 -0 -0 -0 -0 -0 -0 -0
nan nan nan nan nan nan nan nan nan nan -0 -0 -10 -10 -18 -16 -8 -8 -10 -13 -13 -18 -23 -40 -40 -62 nan nan nan nan nan nan nan nan nan nan nan nan nan nan nan nan nan nan nan nan nan nan nan nan nan -0 -0 -0 -0 -0 -0 -0 -0 -0 -0 -0 -0 -0 -0 -0 -0 -0 -0 -0 -0 -0 -0 -0 -0 -0 -0 -0 -0 -0 -0 -0 -0 -0 -0 -0
nan nan nan nan nan nan nan -1 -1 -1 -31 nan -36 -36 -47 -22 -6 -6 -10 -14 -14 -16 -25 -34 -34 -56 nan nan nan nan nan nan nan nan nan nan nan nan nan nan nan nan nan nan nan nan nan nan nan nan nan nan -0 -0 -0 -0 -0 -0 -0 -0 -0 -0 -0 -0 -0 -0 -0 -0 -0 -0 -0 -0 -0 -0 -0 -0 -0 -0 -0 -0 -0 -0 -0 -0 -0 -0
-35 -28 -18 -1 -1 -0 -0 -0 -0 -0 -6 -36 nan nan nan -43 -32 -32 -29 -22 -22 -18 -17 -20 -20 -28 nan nan nan nan nan nan nan nan nan -10 nan nan nan nan nan nan nan nan nan nan nan nan nan nan nan nan -0 -0 -0 -0 -0 -0 -0 -0 -0 -0 -0 -0 -0 -0 -0 -0 -0 -0 -0 -0 -0 -0 -0 -0 -0 -0 -0 -0 -0 -0 -0 -0 -0 -0
-0 -0 -0 -0 -0 -0 -0 -0 -0 -0 -0 -0 -29 -29 nan -52 -28 -28 -13 -17 -17 -19 -7 -6 -6 -27 nan nan nan nan nan nan nan nan nan nan -9 -9 nan nan nan nan nan nan nan nan nan nan nan nan nan nan nan nan -0 -0 -0 -0 -0 -0 -0 -0 -0 -0 -0 -0 -0 -0 -0 -0 -0 -0 -0 -0 -0 -0 -0 -0 -0 -0 -0 -0 -0 -0 -0 -0
-0 -0 -0 -0 -0 -0 -0 -0 -0 -0 -0 -0 -0 -0 -3 -34 -19 -19 -12 -30 -30 -28 -8 -5 -5 -16 nan nan nan nan nan nan nan nan nan nan -8 -8 nan nan nan nan nan nan nan nan -0 nan nan nan nan nan nan nan nan -0 -0 -0 -0 -0 -0 -0 -0 -0 -0 -0 -0 -0 -0 -0 -0 -0 -0 -0 -0 -0 -0 -0 -0 -0 -0 -0 -0 -0 -0 -3
-0 -0 -0 -0 -0 -0 -0 -0 -0 -0 -0 -0 -0 -0 -5 -47 -20 -20 -26 -54 -54 -29 -6 -5 -5 -17 -16 nan nan nan nan nan nan nan nan nan nan nan nan nan nan nan -10 -6 -6 nan nan nan nan nan nan nan nan nan nan -0 -0 -0 -0 -0 -0 -0 -0 -0 -0 -0 -0 -0 -0 -0 -0 -0 -0 -0 -0 -0 -0 -0 -0 -0 -0 -0 -0 -2 -2 -11
nan -3 -0 -0 -0 -0 -0 -11 -2 -2 -0 -0 -0 -0 -2 nan nan nan nan -62 -62 -15 -3 -4 -4 -11 -19 nan nan nan nan nan nan nan nan nan nan nan nan nan nan -15 -6 -4 -4 nan nan nan nan nan nan nan nan nan nan nan nan nan nan -0 -0 -0 -0 -0 -0 -0 -0 -0 -0 -0 -0 -0 -0 -0 -0 -0 -0 -0 -0 -0 -0 -0 -7 -25 -25 -34
nan nan nan nan nan nan nan nan nan nan -7 -0 -1 -1 -28 nan nan nan nan nan nan -11 -6 -7 -7 -7 -7 -7 nan nan nan nan nan nan nan nan nan nan nan nan nan nan -8 -4 -4 -6 nan nan nan nan nan nan nan nan nan nan nan nan nan nan nan nan -0 -0 -0 -0 -0 -0 -0 -0 -0 -0 -0 -0 -0 -0 -0 -0 -0 -0 -0 -0 -18 nan nan nan
nan nan nan nan nan nan nan nan nan nan nan nan nan nan nan nan nan nan nan nan nan nan nan nan nan nan nan -2 -2 -2 -6 nan -7 -7 -14 nan nan nan nan nan nan nan nan -19 -19 -11 nan nan nan nan nan nan nan nan nan nan nan nan nan nan nan nan nan -0 -0 -0 -0 -0 -0 -0 -0 -0 -0 -0 -0 -0 -0 -0 -0 -0 -0 -0 -3 nan nan nan
nan nan nan nan nan nan nan nan nan nan nan nan nan nan nan nan nan nan nan nan nan nan nan nan nan nan nan nan -6 -6 -11 nan -0 -0 -3 nan nan nan nan nan nan nan nan -21 -21 -15 -11 -9 -9 nan nan nan nan nan nan nan nan nan nan nan nan nan nan nan nan nan nan nan nan nan -0 -0 -0 -0 -0 -0 -0 -0 -0 -0 -0 -0 -0 -1 -1 -1
nan nan nan nan nan nan nan nan nan nan nan nan nan nan nan nan nan nan nan nan nan nan nan nan nan nan nan nan -5 -5 nan nan -0 -0 -2 nan nan nan nan nan nan -10 -8 -7 -7 -7 -8 -9 -9 -7 -9 nan nan nan nan nan nan nan nan nan nan nan nan nan nan nan nan nan nan nan nan nan nan nan -0 -0 -0 -0 -0 -0 -0 -0 -0 -1 -1 -3
nan nan nan nan nan nan nan nan nan nan nan nan nan nan nan nan nan nan nan nan nan nan nan nan nan nan nan nan -3 -3 nan nan nan nan -1 nan nan nan nan -12 -12 -9 -4 -3 -3 -4 -5 -5 -5 -0 -2 -6 nan nan nan nan nan nan nan nan nan nan nan nan nan nan nan nan nan nan nan nan nan nan nan -0 -0 -0 -0 -0 -0 -0 -0 -0 -0 -1
nan nan nan nan nan nan nan nan nan nan nan nan nan nan nan nan nan nan nan nan nan nan nan nan nan nan nan nan nan nan nan nan nan nan -1 nan nan nan nan -7 -7 -5 -2 -2 -2 -3 -4 -4 -4 -0 -0 -2 -9 -9 nan nan nan nan nan nan nan nan nan nan nan nan nan nan nan nan nan nan nan nan nan -0 -0 -0 -0 -0 -0 -0 -0 -0 -0 -0
nan nan nan nan nan nan nan nan nan nan nan nan nan nan nan nan nan nan nan nan nan nan nan nan nan nan nan nan nan nan nan nan nan nan nan nan nan nan -6 -2 -2 -1 -1 -1 -1 -2 -2 -2 -2 -2 -2 -3 -7 -7 nan nan nan nan nan nan nan nan nan nan nan nan nan nan nan nan nan nan nan nan nan -0 -0 -0 -0 -0 -0 -0 -0 -0 -0 -0
nan nan nan nan nan nan nan nan nan nan nan nan nan nan nan nan nan nan nan nan nan nan nan nan nan nan nan nan nan nan nan nan nan nan nan nan -6 -6 -1 -1 -1 -1 -2 -1 -1 -1 -1 -1 -1 -1 -2 -4 -0 -0 -1 -4 -4 nan nan nan nan nan nan nan nan nan nan nan nan nan nan nan nan nan nan nan nan nan nan nan nan -0 -0 -0 -0 -0
nan nan nan nan nan nan nan nan nan nan nan nan nan nan nan nan nan nan nan nan nan nan nan nan nan nan nan nan nan nan nan nan nan nan nan nan nan nan -3 -1 -1 -3 -5 -4 -4 -1 -1 -0 -0 -1 -1 -2 -3 -3 -5 -5 -5 nan nan nan nan nan nan nan nan nan nan nan nan nan nan nan nan nan nan nan nan nan nan nan nan -0 nan nan nan -1
nan nan nan nan nan nan nan nan nan nan nan nan nan nan nan nan nan nan nan nan nan nan nan nan nan nan nan nan nan nan nan nan nan nan nan nan nan nan nan nan nan nan -15 -6 -6 -2 -0 -0 -0 -0 -0 -1 -1 -1 -2 nan nan nan -0 nan nan nan nan nan nan nan nan nan nan nan nan nan nan nan nan nan nan nan -1 nan nan -1 nan nan nan nan
nan nan nan nan nan nan nan nan nan nan nan nan nan nan nan nan nan nan nan nan nan nan nan nan nan nan nan nan nan nan nan nan nan nan nan nan nan nan nan nan nan nan nan nan nan -3 -0 -0 -0 -0 -1 -1 -0 -0 -0 nan nan -0 -0 nan nan nan nan nan nan -17 nan nan nan nan -1 -2 -2 -2 nan nan nan nan nan nan nan nan nan nan nan nan
nan nan nan nan nan nan nan nan nan nan nan nan nan nan nan nan nan nan nan nan nan nan nan nan nan nan nan nan nan nan nan nan nan nan nan nan nan nan nan nan nan nan nan nan nan nan nan -0 -0 -0 nan nan nan nan nan nan nan nan -0 nan nan nan nan nan nan nan nan nan nan nan -0 -0 -1 -1 -0 nan nan nan nan nan nan nan -0 nan nan nan
nan nan nan nan nan nan nan nan nan nan nan nan nan nan nan nan nan nan nan nan nan nan nan nan nan nan nan nan nan nan nan nan nan nan nan nan nan nan nan nan nan nan nan nan nan nan nan nan nan nan nan nan nan nan nan nan nan nan nan nan nan -0 nan nan nan nan nan nan nan nan nan nan -1 -1 nan nan nan nan nan nan nan -0 -0 nan nan nan
nan nan nan nan nan nan nan nan nan nan nan nan nan nan nan nan nan nan nan nan nan nan nan nan nan nan nan nan nan nan nan nan nan nan nan nan nan nan nan nan nan nan nan nan nan nan nan nan nan nan nan nan nan nan nan nan nan nan nan nan nan nan -0 -4 -4 nan nan nan nan nan nan nan nan nan nan nan nan nan nan nan nan nan nan nan nan nan
nan nan nan nan nan nan nan nan nan nan nan nan nan nan nan nan nan nan nan nan nan nan nan nan nan nan nan -11 nan nan nan nan nan nan nan nan nan nan nan nan nan nan nan nan nan nan nan nan nan nan nan nan nan nan nan nan nan nan nan nan nan -1 -2 -3 -3 -2 -1 nan nan nan nan nan nan nan nan nan nan nan nan nan nan nan nan nan nan nan
nan nan nan nan nan nan nan nan nan nan nan nan nan nan nan nan nan nan nan nan nan nan nan nan nan nan nan -5 nan nan nan nan nan nan nan nan nan nan nan nan nan nan nan nan nan nan nan nan nan nan nan nan nan nan nan nan nan nan nan nan nan -2 nan nan nan nan nan nan nan nan nan nan nan nan nan nan nan nan nan nan nan nan nan nan nan nan
nan nan nan nan nan nan nan nan nan nan nan nan nan nan nan nan nan nan nan nan nan nan nan nan nan nan nan nan nan nan nan nan nan nan nan nan nan nan nan nan nan nan nan nan nan nan nan nan nan nan nan nan nan nan nan nan nan nan nan -0 -0 -2 nan nan nan nan nan nan nan nan nan nan nan nan nan nan nan nan nan nan nan nan nan nan nan nan
nan nan nan nan nan nan nan nan nan nan nan nan nan nan nan nan nan nan nan nan nan nan nan nan nan nan nan nan nan nan nan nan nan nan nan nan nan nan nan nan nan nan nan nan nan nan nan nan nan nan nan nan nan nan nan nan nan -2 -0 -1 -1 -1 nan nan nan nan nan nan nan nan nan nan nan nan nan nan nan nan nan nan nan nan nan nan nan nan
nan nan nan nan nan nan nan nan nan nan nan nan nan nan nan nan -12 -12 nan nan nan nan nan nan nan nan nan nan nan nan nan nan nan nan nan nan nan nan nan nan nan nan nan nan nan nan nan nan nan nan nan nan nan nan nan -1 -1 -1 -2 -1 -1 -1 nan nan nan nan nan nan nan nan nan nan nan nan nan nan nan nan nan nan nan nan nan nan nan nan
nan nan nan nan nan nan nan nan nan nan nan nan nan nan nan nan nan nan nan nan nan nan nan nan nan nan nan nan nan nan nan nan nan nan nan nan nan nan nan nan nan nan nan nan nan nan nan nan nan nan nan nan nan nan nan nan nan nan nan nan nan nan nan nan nan nan nan nan nan nan nan nan nan nan nan nan nan nan nan nan nan nan nan nan nan nan
nan nan nan nan nan nan nan nan nan nan nan nan nan nan nan nan nan nan nan nan nan nan nan nan nan nan nan nan nan nan nan nan nan nan nan nan nan nan nan nan nan nan nan nan nan nan nan nan nan nan nan nan nan nan nan nan nan nan nan nan nan nan nan nan nan nan nan -0 nan nan nan nan nan nan nan nan nan nan nan nan nan nan nan nan nan nan
Wind_Speed
3 3 3 3 3 3 3 2 3 4 5 5 5 6 6 8 8 8 10 10 9 9 9 9 9 10 12 17 20 23 25 26 26 26 26 26 26 25 25 25 25 25 24 24 24 24 24 24 25 25 25 25 24 24 23 23 23 23 23 22 21 20 19 18 18 17 17 18 19 20 21 21 22 22 22 22 22 21 21 21 21 21 21 21 21 21
3 3 3 3 2 3 4 3 3 3 5 5 6 6 7 7 7 7 8 8 8 8 8 9 9 10 11 13 18 22 24 25 25 26 26 25 25 25 25 25 25 24 24 24 24 24 25 25 25 25 24 23 22 21 20 20 20 21 21 20 19 17 17 16 16 16 16 17 18 19 20 20 21 21 22 22 21 21 20 20 20 20 20 20 20 21
3 3 3 2 2 3 4 4 3 3 4 5 6 7 7 7 7 7 7 7 7 7 8 8 9 10 11 12 16 20 22 24 25 25 25 25 25 25 25 25 25 24 24 24 24 25 26 25 25 23 22 21 19 18 17 18 18 19 19 19 18 17 16 16 15 15 15 16 17 17 18 19 19 20 21 21 21 21 20 20 20 20 19 19 20 20
3 3 3 3 3 3 4 4 4 4 4 5 6 7 7 7 6 6 6 7 7 7 8 8 9 9 9 10 13 17 21 23 24 24 24 25 25 25 25 25 25 25 24 24 25 25 26 25 23 21 19 18 16 16 15 16 17 18 19 19 18 18 17 17 17 16 16 16 17 17 17 18 18 19 19 20 20 20 20 19 19 19 19 19 19 19
4 3 4 3 3 4 4 4 5 5 5 6 6 6 6 6 6 6 6 6 7 7 8 8 8 9 8 8 11 15 19 22 23 23 24 24 25 25 25 25 25 25 25 25 25 24 24 22 21 19 18 16 15 15 14 14 15 16 17 18 19 19 19 19 18 18 17 17 17 17 17 18 18 18 19 19 20 20 19 19 19 19 19 18 18 18
4 3 4 3 3 4 4 4 5 5 5 5 5 5 5 5 5 5 6 6 7 7 7 7 7 8 8 8 11 15 18 20 21 22 23 24 24 25 25 25 25 25 24 24 23 22 21 20 19 18 18 17 17 16 15 13 13 14 15 17 19 20 20 20 20 19 19 19 18 18 18 18 18 18 18 19 19 19 19 19 19 19 19 18 18 18
4 3 4 3 4 4 4 4 4 4 4 4 5 5 5 5 5 5 6 6 6 6 6 6 7 7 7 8 11 13 15 16 18 19 21 22 23 24 24 24 24 23 23 22 21 20 20 19 19 19 20 20 19 18 17 14 13 13 14 17 19 21 22 21 21 21 21 20 19 19 18 18 18 18 18 19 19 19 19 19 19 19 19 19 18 18
5 5 4 5 5 5 5 4 4 4 4 5 5 5 6 5 5 6 6 6 6 5 5 6 6 6 6 7 8 10 10 11 12 13 16 17 19 20 21 22 22 21 20 20 19 19 19 20 20 21 22 22 22 21 20 17 15 15 15 17 20 22 22 23 23 23 22 21 21 20 19 18 18 18 18 19 19 20 20 20 20 20 20 19 19 18
6 6 6 6 6 6 6 5 4 4 4 4 5 5 6 7 6 6 6 6 5 4 5 5 6 6 6 5 6 8 9 9 9 10 11 12 13 14 17 18 18 18 18 18 19 19 20 20 20 21 22 22 23 22 22 20 19 18 18 19 20 21 22 23 23 23 23 22 21 20 19 19 18 18 18 18 19 20 20 21 21 20 20 19 19 18
6 6 6 5 5 5 6 6 6 5 4 4 4 5 6 7 7 7 6 6 5 4 4 5 6 7 7 6 6 7 9 10 12 13 14 14 15 16 16 15 14 14 16 17 19 19 20 20 20 20 21 21 22 22 22 21 21 20 20 20 21 21 22 22 23 23 23 22 21 20 19 19 18 18 18 18 18 19 20 21 21 21 21 20 19 19
6 6 5 5 5 5 6 6 6 5 4 4 4 5 5 5 6 7 7 7 6 5 5 5 5 6 7 7 6 6 7 8 9 11 13 14 16 16 15 13 13 14 16 17 19 19 20 20 20 20 20 20 21 21 21 21 21 21 21 21 21 21 22 22 23 23 23 22 21 19 19 18 18 18 18 18 18 18 19 20 20 21 21 21 20 20
5 5 4 5 5 5 5 5 5 4 4 4 4 4 4 4 4 5 7 8 8 7 7 6 5 5 6 7 7 7 5 6 6 7 7 8 9 9 9 9 10 12 14 15 16 17 18 19 20 20 19 19 20 20 20 20 20 21 21 21 22 22 22 22 23 23 23 22 20 19 19 18 18 18 18 18 18 18 18 18 19 20 21 21 21 21
5 4 4 4 4 4 4 4 4 3 3 4 5 5 5 5 4 5 6 8 8 7 7 7 6 6 5 6 6 5 5 5 5 5 5 4 4 4 4 5 6 7 9 9 10 11 14 17 18 18 18 19 19 20 20 20 20 21 21 21 22 22 22 22 23 23 23 22 21 20 19 19 20 20 20 19 19 18 18 18 18 19 20 21 21 21
5 4 4 4 4 4 3 4 4 4 4 4 5 5 6 6 6 5 5 6 7 7 7 7 7 6 4 5 5 4 4 5 5 4 4 3 3 4 4 5 6 6 6 7 7 8 11 12 13 13 16 17 18 18 18 19 20 21 21 21 22 22 22 23 23 23 23 23 23 22 22 21 21 21 21 20 20 19 18 18 18 18 19 20 21 21
4 4 5 5 5 4 4 4 5 5 5 5 5 6 7 7 6 6 6 8 8 7 6 7 7 6 5 5 4 4 4 4 4 4 4 4 4 4 5 5 6 6 6 6 7 8 10 10 9 9 11 13 14 15 16 18 19 20 21 21 22 22 23 23 24 24 24 24 24 23 23 23 23 23 22 22 21 20 19 18 18 18 19 19 20 21
4 4 5 5 5 5 4 5 5 6 6 6 6 6 6 7 6 6 6 7 6 5 5 5 6 6 5 4 4 3 4 4 4 4 5 5 5 4 5 5 6 6 6 6 6 7 7 7 7 8 9 12 14 17 18 19 19 21 21 22 22 23 23 24 24 24 24 24 24 24 24 24 24 23 23 23 22 21 20 19 19 18 18 19 20 20
2 3 4 5 5 6 6 5 6 6 6 6 5 6 6 6 6 6 6 5 5 4 4 4 5 6 5 4 3 3 4 4 4 4 5 6 5 5 5 5 6 7 6 6 6 6 6 7 7 7 7 11 14 17 18 19 20 21 22 23 23 24 24 24 24 24 24 24 24 24 24 24 24 23 23 23 22 22 21 21 20 20 19 20 20 21
3 4 5 6 6 6 6 6 6 6 6 6 6 6 6 6 5 5 5 4 4 4 4 4 4 5 5 5 3 3 3 3 4 5 6 6 6 5 4 5 5 6 6 6 6 5 6 6 6 6 7 12 15 17 19 20 21 22 23 23 24 24 24 24 24 24 24 23 24 24 24 23 23 22 22 22 22 22 22 21 21 21 21 21 21 21
5 5 5 6 6 6 6 5 5 5 6 5 5 5 5 5 5 5 6 5 5 5 5 5 4 4 4 4 3 2 2 4 5 5 6 7 6 5 4 5 5 6 6 6 6 5 5 5 6 8 11 14 17 18 19 21 22 23 23 24 24 23 23 23 23 23 22 22 22 22 22 22 22 21 20 20 20 21 21 21 21 21 21 22 22 22
5 5 5 5 6 6 5 5 5 6 6 6 6 6 6 6 6 5 5 4 4 4 4 4 4 4 3 3 3 4 4 5 5 5 5 6 6 5 4 4 5 6 6 5 5 4 4 4 5 8 12 15 17 19 21 22 22 23 23 23 23 23 22 22 21 21 21 21 21 21 20 20 20 20 19 19 19 19 20 20 20 21 21 22 23 23
6 6 5 5 5 6 6 6 6 7 8 8 7 6 6 5 5 5 5 4 4 4 3 3 3 3 3 4 5 5 5 5 5 5 4 5 5 5 4 4 5 5 6 5 4 4 4 5 5 6 10 15 18 20 21 22 22 23 23 22 22 22 22 21 21 21 20 20 20 20 19 19 19 19 19 19 19 19 19 19 19 20 21 22 23 24
6 6 6 6 6 6 8 9 10 10 10 9 7 6 5 5 5 5 5 5 4 4 4 4 4 4 4 5 5 5 5 4 4 4 4 5 5 5 4 4 4 5 6 5 5 5 5 5 5 7 11 15 18 20 21 21 22 22 22 22 21 21 21 21 21 22 21 21 21 20 20 19 19 19 19 19 19 18 18 18 18 19 20 22 22 23
6 7 7 7 7 8 9 9 9 9 8 7 7 6 4 4 5 6 6 5 4 5 5 5 5 5 4 4 4 4 4 4 4 4 4 5 5 5 4 4 5 5 5 5 5 5 6 6 6 7 10 15 18 19 20 21 21 21 21 21 21 21 22 22 22 22 22 22 21 21 21 20 20 19 19 19 19 18 17 18 18 19 21 21 22 21
7 8 8 8 8 8 8 7 7 6 5 5 5 5 5 5 5 6 5 5 5 5 5 5 5 4 3 3 4 3 3 3 3 3 3 5 5 5 4 4 5 6 6 6 5 6 6 6 6 7 8 12 16 18 19 20 20 21 21 21 21 22 22 22 22 22 22 21 21 21 21 21 20 20 20 19 19 18 18 18 19 20 21 21 20 19
7 8 8 8 8 9 8 7 7 7 7 6 5 5 5 6 6 6 5 5 5 5 5 4 4 4 3 3 3 3 3 3 3 3 3 4 5 5 4 4 5 6 7 6 6 6 6 7 7 6 6 9 12 16 17 19 20 20 21 22 22 22 22 22 22 22 21 21 21 21 21 21 20 20 20 19 19 18 18 18 19 20 21 21 19 17
10 10 11 11 13 14 15 15 16 15 15 11 8 6 5 5 5 5 5 4 4 5 5 5 5 4 3 3 3 3 3 3 3 3 3 4 4 5 4 3 4 5 7 7 6 6 7 7 7 6 5 6 9 13 16 18 19 20 21 22 22 22 22 22 22 21 21 21 21 21 20 20 20 20 20 19 19 18 18 18 19 20 21 20 17 15
18 19 19 18 17 17 17 18 19 19 20 18 15 12 9 6 6 6 6 5 5 5 5 6 6 5 3 3 3 3 4 3 3 2 2 3 4 4 4 3 4 5 7 7 6 7 8 8 7 6 5 4 6 9 14 16 18 20 21 22 22 22 22 22 22 21 21 21 21 21 21 20 20 20 19 19 19 18 18 18 19 19 19 17 14 11
17 16 15 15 16 16 17 17 17 17 17 18 18 17 12 7 6 6 6 5 5 5 6 6 6 4 3 3 4 4 4 3 3 2 2 3 3 4 4 4 4 5 6 6 6 7 8 7 6 5 5 4 5 6 11 14 17 18 20 20 21 21 21 21 21 21 21 21 21 21 21 20 20 19 19 19 19 18 18 18 18 18 16 13 9 6
12 11 12 13 14 15 15 14 14 14 15 16 17 15 11 6 5 6 6 5 4 5 6 5 5 4 4 4 5 5 4 3 2 2 2 3 3 4 3 4 4 4 5 5 6 6 6 5 4 4 4 5 5 6 8 11 13 14 15 17 19 19 20 20 21 21 21 21 21 21 21 20 20 19 19 19 18 18 18 18 17 15 12 9 7 5
6 7 8 9 10 10 10 9 9 10 12 14 14 13 10 5 4 5 5 4 4 4 5 5 4 4 5 5 5 5 4 3 3 3 3 4 4 3 3 4 4 4 4 5 5 5 5 4 4 3 4 5 6 6 6 7 8 8 9 12 14 15 18 19 20 21 21 21 21 21 20 20 19 19 19 18 18 18 18 18 16 12 7 6 5 5
3 4 5 5 5 5 5 5 5 6 8 9 10 9 7 5 4 4 4 3 3 3 4 4 4 5 5 5 4 4 4 3 4 4 4 3 3 3 4 4 4 4 4 4 4 5 5 5 4 4 4 5 6 6 6 6 6 6 6 7 8 10 15 17 19 19 19 19 19 20 20 19 19 19 18 18 18 18 18 18 15 11 6 5 4 4
3 4 4 4 3 3 3 3 3 4 4 5 5 5 5 5 4 3 3 3 3 3 3 3 4 4 5 4 4 4 4 4 5 5 4 3 3 3 3 4 4 4 3 3 3 4 5 5 5 5 5 5 6 6 6 6 6 5 5 6 6 8 13 15 16 16 15 16 17 18 18 18 18 18 18 18 18 18 18 18 15 11 6 4 4 4
4 4 4 3 3 2 2 2 3 3 3 3 3 3 3 3 3 3 3 3 2 3 3 3 4 4 5 5 5 5 4 4 5 7 6 4 3 3 3 4 4 4 4 3 3 4 4 5 5 6 6 6 6 6 6 6 6 5 6 6 6 7 11 12 12 11 11 12 13 14 15 16 16 16 17 17 17 17 17 18 16 13 8 5 4 4
4 4 3 3 2 2 2 2 3 3 3 3 3 3 2 2 2 2 3 2 2 2 3 3 3 4 5 5 5 5 5 5 6 7 7 4 3 3 3 4 4 4 4 4 4 4 4 5 6 6 6 6 6 5 6 6 6 6 5 6 7 7 9 9 9 9 9 9 8 8 10 11 12 13 14 14 15 16 17 17 17 16 14 9 6 4
3 3 3 2 1 2 3 3 3 3 3 3 3 3 2 2 2 3 3 3 3 3 3 3 3 3 4 4 5 5 5 5 7 8 7 5 4 3 3 3 4 4 5 5 5 5 4 6 7 7 7 7 6 5 5 5 5 5 5 6 7 7 8 8 8 8 8 8 7 6 6 6 7 8 9 11 13 15 17 17 18 17 16 14 10 7
3 2 2 1 1 2 3 3 4 4 4 3 3 3 3 3 3 3 3 3 4 4 4 4 3 3 3 4 4 5 6 6 7 8 8 6 4 4 3 3 4 4 5 5 5 5 5 6 7 8 8 7 6 6 5 5 5 6 6 7 7 8 8 8 7 7 7 7 7 6 6 6 6 6 7 11 14 15 17 17 17 17 16 15 13 11
2 1 1 1 1 2 3 3 3 3 3 3 3 3 3 3 3 4 4 4 4 4 4 4 4 4 5 4 4 5 6 6 6 7 7 6 5 4 3 4 4 5 5 6 6 6 6 7 7 8 8 7 6 6 6 6 7 6 6 7 7 8 8 7 7 6 6 6 7 7 7 6 6 6 7 11 13 13 14 14 14 14 15 14 14 13
1 1 1 1 1 2 2 3 3 3 3 3 3 3 3 4 4 4 4 4 4 4 4 4 4 5 6 7 7 6 6 7 7 7 7 5 4 4 4 4 5 5 5 6 6 6 6 7 7 7 7 6 7 7 8 8 8 8 7 8 8 8 8 7 6 6 5 6 7 7 8 7 6 6 6 8 8 8 8 8 9 10 12 11 12 12
1 1 1 2 2 2 3 3 3 3 3 3 3 3 3 4 4 4 4 4 4 4 4 4 4 4 5 7 7 8 8 7 6 6 5 4 3 3 4 4 5 5 5 5 5 6 6 6 6 6 6 7 7 8 8 7 8 8 9 8 8 8 7 7 7 7 6 6 7 7 7 6 6 5 6 6 6 6 6 6 6 7 7 6 7 9
1 1 2 3 3 3 4 4 4 3 3 3 3 3 3 3 3 3 3 3 4 4 4 4 4 4 5 5 6 6 6 5 5 4 3 3 2 2 2 3 4 5 5 5 5 5 6 6 6 7 7 7 7 8 8 8 8 9 10 8 7 7 8 8 7 6 6 6 6 6 6 5 5 5 6 6 6 6 6 6 6 6 6 4 4 4
2 2 3 3 4 4 4 4 3 3 2 2 2 2 2 2 3 3 3 3 3 3 3 3 4 4 4 4 4 4 4 3 3 3 2 2 2 2 2 3 3 4 5 5 5 5 6 6 7 7 7 7 8 9 9 9 10 10 11 9 8 8 9 8 7 6 5 5 6 6 7 7 7 7 6 6 6 5 5 5 6 6 5 3 2 2
3 3 4 4 3 3 3 3 2 2 1 1 1 1 2 2 2 2 3 3 3 3 3 3 4 4 4 4 4 3 3 3 3 3 3 2 2 2 2 3 4 4 5 5 5 5 6 6 7 7 7 7 7 8 8 9 9 10 9 9 9 9 9 7 5 4 5 5 5 6 7 7 7 7 7 7 6 6 6 6 6 7 6 3 2 2
3 4 4 4 3 3 2 2 2 1 1 1 1 2 2 2 2 2 3 3 3 4 4 3 3 4 4 4 3 3 3 3 3 3 3 3 2 2 3 4 4 4 4 5 5 5 5 6 6 6 6 6 6 7 8 9 9 9 8 9 9 8 6 4 4 4 5 5 5 5 5 5 6 6 6 6 5 5 5 6 7 7 6 4 3 3
3 4 4 3 2 1 1 1 1 1 1 1 2 2 2 2 2 2 2 2 3 3 3 3 3 3 3 3 3 2 3 4 4 4 3 3 3 4 4 4 4 4 3 4 4 5 5 5 5 5 5 5 6 7 8 8 8 8 8 8 8 7 5 5 6 6 6 5 5 5 5 5 5 5 5 5 5 5 5 5 4 4 4 4 3 3
3 3 2 2 1 1 1 2 2 2 1 2 2 2 2 2 2 2 2 2 2 3 3 3 3 3 3 2 2 2 3 4 4 3 3 4 5 6 5 5 4 4 4 3 4 4 5 5 6 5 5 5 6 7 7 8 8 8 8 9 8 7 6 6 7 7 7 7 6 5 5 5 4 4 4 4 5 5 5 5 5 5 4 3 3 3
2 2 2 1 1 2 2 2 2 1 1 2 2 2 2 2 1 1 2 2 2 2 2 2 2 2 3 3 3 2 3 3 3 3 2 3 4 4 4 4 5 5 4 4 4 4 4 5 5 6 5 5 5 6 7 7 7 7 7 8 7 6 6 6 6 6 7 7 6 6 6 5 4 4 4 5 5 5 5 5 5 5 5 4 4 4
3 3 3 2 2 2 2 2 1 1 1 2 2 2 2 1 1 1 1 1 1 2 2 2 2 2 3 3 3 2 3 3 3 3 3 4 4 4 4 5 5 5 4 4 5 5 5 5 5 5 5 5 5 5 5 6 6 6 6 6 6 6 6 6 6 6 6 7 7 6 6 5 4 4 5 5 5 5 5 5 5 5 5 4 4 4
4 4 3 2 2 1 1 1 1 1 2 2 2 2 2 2 2 2 1 1 1 2 2 2 2 2 3 2 2 2 2 3 3 4 4 4 4 5 5 5 5 5 4 5 5 5 6 6 6 5 5 4 4 4 4 5 5 6 6 6 6 6 6 6 6 6 6 7 7 7 5 4 4 4 5 5 5 5 5 5 5 5 4 4 4 4
4 4 3 3 2 2 2 2 1 2 2 2 2 2 2 2 2 3 1 1 1 1 1 2 3 3 3 3 2 2 2 2 3 3 4 4 4 5 5 5 5 5 4 4 4 4 5 5 5 5 5 4 3 3 5 5 6 6 6 5 5 6 6 6 6 6 6 7 7 6 5 4 3 3 4 5 5 6 6 6 5 5 4 4 4 4
3 3 3 3 3 2 2 2 2 2 2 2 2 2 2 1 1 1 1 1 1 1 1 2 3 3 3 3 2 2 2 2 3 3 4 4 4 5 6 6 6 6 5 5 4 4 5 4 4 4 3 2 2 3 4 5 6 6 5 5 5 5 6 6 6 6 7 7 7 6 5 4 4 3 3 4 5 5 6 6 6 6 5 4 4 4
3 3 3 3 3 3 3 2 2 2 2 2 2 2 1 1 1 1 1 1 1 1 1 2 2 3 3 3 3 2 1 2 3 3 4 4 4 5 6 6 6 6 6 6 6 6 6 5 5 4 4 5 6 7 4 5 5 6 6 6 5 5 6 6 6 7 8 7 6 5 5 5 4 4 4 4 4 5 5 6 6 6 6 5 5 5
Wind_Direction
282 288 292 295 297 297 294 304 320 324 317 317 316 315 312 311 309 305 303 302 300 298 298 298 298 299 299 301 302 303 304 305 306 307 307 308 308 308 308 307 307 307 307 308 309 310 311 311 311 310 311 311 311 313 315 318 320 321 321 319 318 317 315 313 311 310 308 307 306 304 302 301 300 299 298 296 295 293 292 291 290 290 289 288 287 285
287 291 293 298 302 301 297 304 313 317 312 312 311 311 311 308 305 303 301 299 297 296 298 299 299 300 299 300 301 302 303 303 304 305 306 306 306 306 306 306 306 306 307 309 310 311 312 312 312 312 313 314 316 319 324 327 328 327 325 322 320 317 313 311 308 306 305 305 303 302 302 301 300 299 297 295 294 293 292 292 291 291 290 289 286 284
295 296 297 302 304 304 300 305 307 305 303 304 305 306 306 303 301 300 300 299 299 298 298 299 300 299 298 298 298 299 300 301 303 304 304 305 305 305 306 306 307 307 309 310 311 312 312 312 313 314 315 317 320 325 331 334 334 332 329 325 320 315 309 305 302 299 298 297 297 296 297 297 297 296 294 294 293 292 292 292 291 290 290 288 287 285
297 299 301 305 302 298 295 301 304 304 302 302 302 301 299 298 296 296 296 298 299 299 297 296 296 296 295 294 295 296 297 299 301 303 305 306 307 307 308 308 309 309 310 311 311 312 312 314 315 316 316 317 321 326 334 337 338 337 333 327 320 312 305 300 297 295 293 292 291 291 292 292 292 292 292 291 291 291 290 290 290 289 289 288 288 286
299 300 304 307 305 300 297 300 302 304 304 301 299 297 294 292 292 293 295 296 295 295 295 294 292 291 290 290 291 293 295 299 302 305 307 308 309 309 310 310 310 310 311 311 312 313 315 316 317 317 315 316 319 324 331 337 339 337 333 325 316 308 302 298 296 294 293 293 292 292 292 292 292 292 292 292 292 292 291 290 290 290 289 288 287 286
298 299 304 305 303 301 302 302 303 304 303 299 296 292 290 289 290 292 294 294 293 293 292 291 290 287 286 285 288 292 296 301 305 308 309 309 310 310 310 310 310 311 311 312 314 316 318 319 318 316 314 315 317 321 325 331 333 331 325 315 307 301 297 296 295 295 296 297 297 297 297 297 297 297 297 297 297 296 294 293 292 290 289 288 287 286
297 298 303 301 298 297 299 300 301 301 299 298 296 294 291 289 289 288 288 288 289 289 289 288 286 285 283 283 287 293 298 303 307 309 309 308 308 308 309 309 310 311 312 315 318 320 322 321 319 316 315 315 316 317 318 319 320 317 310 302 296 293 292 294 295 298 301 303 303 303 304 304 304 304 303 303 302 300 298 296 294 292 291 290 290 289
298 299 300 298 298 297 296 295 294 293 291 294 297 299 298 295 291 289 286 285 284 285 287 287 288 288 288 288 292 296 300 303 305 305 306 305 305 306 307 308 309 311 315 318 320 321 321 319 317 316 315 315 314 313 312 311 308 303 298 294 291 291 293 296 300 303 305 307 308 308 309 309 308 308 307 306 305 303 300 298 296 294 293 293 292 292
293 296 297 297 299 300 299 294 289 286 287 290 294 298 300 298 296 293 291 289 286 284 285 290 294 297 297 297 298 299 297 296 296 297 298 299 300 302 303 305 308 311 315 316 316 316 314 313 312 312 312 311 311 310 309 308 305 301 298 295 295 296 299 302 305 307 308 310 311 312 312 311 310 309 308 306 305 303 301 300 298 296 295 294 293 292
287 291 295 296 296 296 295 294 292 289 284 285 287 289 293 296 297 297 295 291 287 285 287 295 301 303 302 300 298 296 295 293 292 292 293 293 294 296 298 301 305 309 311 311 309 308 306 306 305 304 305 306 306 306 307 306 305 304 302 303 302 303 305 306 308 309 310 312 313 314 314 312 310 308 307 304 303 301 300 300 299 299 297 295 293 291
287 289 292 293 291 287 285 287 290 292 291 290 287 285 282 284 288 291 293 292 292 293 294 296 300 302 303 301 298 295 293 291 291 290 290 290 292 294 297 301 305 306 306 306 305 303 302 301 300 300 300 301 302 303 304 304 304 305 305 306 306 306 307 308 309 310 312 313 315 316 315 313 311 309 307 304 302 300 299 299 299 299 299 297 295 293
284 286 285 285 285 285 282 284 289 295 300 299 297 292 283 273 274 282 288 293 296 298 298 296 294 294 295 298 298 297 292 288 287 287 287 287 289 294 300 305 306 305 304 303 302 300 299 298 298 298 298 298 299 300 300 301 302 304 304 305 306 307 308 309 309 310 312 314 316 317 317 316 314 312 311 307 305 302 300 299 299 299 299 297 296 294
273 275 276 278 280 281 283 288 293 298 299 296 294 293 290 285 282 283 286 289 292 294 294 293 291 290 288 290 292 293 290 286 284 285 288 292 299 307 311 307 303 301 300 299 298 296 296 296 296 297 297 297 297 298 298 299 301 302 303 304 306 307 308 309 309 310 312 314 316 317 318 317 316 315 313 311 309 306 304 301 299 298 298 296 295 295
269 271 272 275 277 279 281 287 291 294 294 290 287 286 286 288 288 287 285 283 282 282 283 284 287 291 292 290 287 285 287 289 292 296 303 311 315 314 308 300 295 293 293 292 291 290 291 294 295 296 297 297 297 297 298 299 300 301 303 305 306 308 310 310 311 312 313 315 316 316 316 315 314 313 312 310 309 308 305 302 300 298 296 295 294 294
267 272 275 277 280 284 288 293 293 292 289 286 284 284 285 285 285 283 281 280 279 279 279 281 285 289 293 293 292 293 299 308 314 317 318 312 305 298 294 292 290 288 287 287 286 288 290 293 294 295 296 296 297 298 299 301 303 305 306 309 310 312 313 313 314 314 315 315 315 315 314 312 311 310 308 308 307 306 304 301 299 297 294 293 292 291
272 279 282 287 290 293 297 297 294 291 288 284 282 282 283 283 282 278 275 276 278 280 282 287 291 293 292 292 299 318 337 337 333 324 316 306 298 292 288 288 287 287 286 285 286 289 291 292 292 292 293 296 299 301 305 308 310 311 312 314 315 316 316 316 315 315 314 314 313 312 310 309 307 306 305 304 304 303 302 300 298 296 294 292 290 290
282 288 291 294 296 296 297 293 287 283 283 282 280 277 276 278 279 278 276 277 279 282 284 293 298 300 300 305 327 4 12 349 329 314 305 298 294 290 284 284 285 286 286 286 287 289 291 292 292 293 294 300 306 310 313 315 316 316 317 317 317 317 317 316 315 314 313 312 310 309 308 306 304 303 302 301 301 301 300 299 298 297 295 293 291 289
290 292 294 293 291 290 291 288 284 281 279 280 279 278 277 278 280 282 283 284 286 289 292 293 294 296 302 310 334 12 11 335 315 304 298 295 294 292 286 283 283 284 286 287 288 289 290 292 294 299 303 312 315 317 318 317 317 318 318 318 318 317 316 315 313 312 312 311 310 309 308 306 304 303 302 301 300 299 299 298 298 297 296 294 292 289
291 290 289 287 285 283 282 280 280 280 280 279 281 284 286 286 286 286 286 287 288 291 294 295 294 294 296 300 310 325 326 313 306 302 299 296 295 294 291 287 285 286 288 290 292 294 294 296 302 308 313 318 320 320 319 318 318 318 318 318 317 316 314 313 313 313 314 314 314 313 312 310 309 307 306 304 302 301 300 298 298 297 297 295 293 290
287 284 280 282 284 283 279 275 275 277 278 282 286 289 289 290 291 290 290 290 290 290 292 292 293 293 295 297 302 307 314 313 309 303 297 294 294 294 294 291 292 293 295 296 297 300 304 308 313 316 319 320 320 319 319 319 319 318 318 317 315 314 314 314 315 316 318 318 317 316 315 314 312 311 310 308 306 304 302 300 299 298 298 296 293 290
284 281 276 279 282 283 280 277 275 276 280 286 289 290 288 291 293 294 295 295 292 289 286 283 285 290 294 297 300 307 316 316 310 302 295 294 294 295 298 297 297 298 300 301 304 310 317 319 318 316 316 317 318 318 319 319 318 318 317 316 315 314 315 317 318 320 320 320 319 317 315 314 313 312 310 309 307 306 305 304 303 302 299 296 293 290
280 278 274 271 270 270 272 274 275 278 283 288 289 288 289 295 298 298 297 293 288 285 282 281 280 282 286 290 296 303 311 306 300 297 296 295 295 297 302 303 304 304 304 307 312 318 320 318 313 309 309 313 315 317 318 318 317 317 316 316 316 316 318 320 321 321 321 321 320 318 317 315 314 313 312 310 309 308 308 309 308 306 303 299 295 291
266 269 270 267 264 263 267 272 276 280 284 283 280 278 284 290 293 293 292 287 284 282 279 278 277 279 282 288 293 297 299 296 294 294 295 295 298 302 310 312 311 309 308 312 315 316 314 309 303 302 304 312 315 316 317 317 317 317 317 317 317 318 319 321 321 321 321 320 320 319 318 318 317 316 315 314 313 313 314 314 313 311 308 303 298 293
254 258 262 262 261 261 264 268 271 274 274 273 270 269 271 273 275 275 278 282 284 284 282 282 284 285 284 285 289 292 294 298 302 303 298 296 299 305 313 317 314 310 309 311 311 310 307 302 298 297 300 311 315 316 317 317 317 317 317 318 318 318 319 319 319 319 319 319 319 319 319 319 319 318 318 317 317 317 318 318 317 315 313 309 304 298
244 248 253 256 260 264 269 274 279 285 290 287 282 277 275 275 276 278 281 287 290 291 292 295 295 294 289 294 297 300 301 305 307 306 299 297 299 303 310 317 315 311 308 308 308 305 302 299 298 299 301 310 314 316 317 317 317 317 317 317 317 316 316 316 316 317 317 318 318 319 319 319 319 319 319 319 319 319 321 320 319 317 316 314 310 305
263 263 265 272 278 284 290 294 299 304 309 309 308 305 301 297 296 296 298 300 302 303 302 298 295 292 293 302 308 309 309 309 305 299 296 297 300 304 308 314 313 309 306 306 306 304 301 300 301 304 308 311 314 316 317 317 317 316 316 315 314 313 313 314 314 315 316 317 317 318 319 319 319 319 318 319 319 320 320 320 319 318 318 317 315 312
279 281 284 289 294 298 301 303 306 309 312 313 314 313 312 313 313 310 307 309 311 310 303 296 292 292 298 305 308 308 309 310 304 296 297 302 302 302 306 311 310 307 305 303 303 303 302 302 304 308 310 310 313 314 316 315 315 313 312 311 311 311 311 312 313 314 315 316 317 317 318 319 319 319 319 319 319 319 319 319 319 319 318 318 316 313
281 285 291 295 297 298 300 303 306 309 311 312 313 314 315 318 316 311 307 309 310 305 294 288 290 297 309 312 310 307 308 306 302 301 319 310 302 299 303 307 307 305 303 302 302 302 302 302 303 306 309 310 311 312 312 312 311 309 308 307 307 308 309 311 312 313 314 315 316 317 318 318 319 319 319 319 319 319 319 319 319 318 318 317 313 303
280 285 288 288 290 292 297 301 303 305 306 309 313 316 320 318 311 303 299 301 301 297 288 288 294 306 313 312 309 307 306 302 304 318 339 317 302 296 302 306 306 305 305 305 305 304 302 300 301 304 307 311 312 310 307 307 305 304 302 304 305 306 308 310 312 313 314 315 316 316 317 318 318 319 319 319 319 319 319 319 318 318 316 314 308 298
279 283 284 283 285 288 293 294 295 297 301 308 313 316 319 313 300 291 287 289 289 289 287 295 303 310 312 310 308 306 304 305 317 333 341 319 305 299 306 306 306 307 311 312 311 310 307 305 305 306 308 310 310 306 302 300 299 297 297 301 303 306 308 311 312 314 315 315 315 316 316 317 318 319 319 319 319 319 319 319 318 316 310 307 302 298
260 267 270 273 276 279 281 279 282 289 298 307 312 316 316 310 299 289 283 282 281 283 287 297 304 309 312 310 309 306 304 312 324 333 336 315 303 301 307 306 306 308 314 315 314 312 311 311 311 312 312 310 306 303 300 299 298 297 298 301 303 306 309 311 313 314 315 315 315 315 315 315 316 317 318 318 318 319 319 319 318 315 308 303 299 297
241 249 252 254 257 262 268 274 281 290 299 305 308 310 312 314 312 307 300 296 293 295 299 303 306 308 310 306 303 301 301 308 319 325 326 309 297 296 301 302 303 304 309 306 303 303 306 309 312 314 316 312 308 305 303 302 301 302 305 307 307 308 310 312 313 313 313 313 313 313 313 313 314 314 315 316 317 318 319 319 319 318 314 308 302 298
235 241 244 247 251 259 272 285 292 297 298 298 298 301 308 316 321 322 317 309 303 302 303 306 307 307 307 301 297 294 295 301 311 317 319 307 294 292 297 299 301 301 302 298 293 289 289 297 304 310 312 312 310 309 307 307 308 309 311 312 310 309 310 312 312 312 311 311 310 310 310 310 310 311 312 314 315 317 318 320 321 323 324 318 311 306
233 237 241 247 260 279 296 300 298 295 293 291 291 291 292 297 304 305 298 287 279 274 275 285 293 299 303 300 298 295 295 298 306 310 313 302 292 289 296 299 302 304 306 303 300 295 289 294 301 306 308 308 309 309 310 311 313 315 314 312 310 309 309 312 311 310 309 309 307 306 306 305 305 306 308 311 313 316 318 320 322 325 326 323 319 313
229 235 240 256 290 311 310 303 296 291 288 283 277 273 269 270 271 274 275 272 268 263 257 259 264 275 286 293 296 297 296 297 302 305 305 299 293 292 297 299 305 308 309 307 306 304 300 301 303 305 305 307 308 309 311 314 316 315 311 309 308 308 309 310 310 309 308 308 306 303 302 300 300 302 305 309 312 315 318 320 322 324 324 322 320 317
226 239 256 291 315 311 300 292 288 284 280 272 264 257 258 261 264 267 271 274 276 277 276 269 263 258 258 269 279 286 289 291 296 300 301 300 299 298 299 302 308 311 308 306 305 305 304 303 304 304 304 305 307 311 315 318 317 314 311 310 310 310 309 308 307 307 306 306 305 304 303 303 302 302 303 309 312 315 317 319 321 321 321 320 319 316
220 246 286 307 299 286 281 278 275 272 270 266 261 258 259 262 265 268 271 274 277 282 286 285 279 272 265 261 264 270 278 284 290 295 298 299 300 301 301 304 308 309 306 305 305 305 305 304 304 304 305 306 308 313 317 320 320 318 315 316 315 314 310 308 307 305 304 303 303 304 305 305 304 304 304 309 312 315 316 318 318 319 319 318 317 315
209 257 293 276 259 255 258 260 261 261 260 259 260 260 260 262 262 265 271 273 276 278 283 285 285 281 278 276 273 272 274 278 284 288 292 294 298 300 302 303 305 306 304 303 303 303 303 303 305 307 308 309 310 312 314 317 318 318 317 317 315 313 310 310 310 310 308 307 307 308 309 309 309 309 308 311 314 315 315 314 315 316 317 317 316 314
192 240 261 252 245 243 245 250 252 252 251 251 253 257 261 263 263 263 265 270 273 274 273 274 277 279 279 280 281 283 284 285 286 287 289 289 291 295 300 303 305 306 305 303 301 301 301 301 304 308 311 312 312 313 314 315 317 318 318 317 315 313 313 317 319 321 321 320 318 317 316 315 314 314 312 314 316 316 316 314 314 315 316 314 312 312
192 219 243 245 242 237 236 242 245 247 248 255 263 269 272 273 273 273 271 275 277 277 273 270 272 276 280 284 287 289 291 292 292 293 293 293 294 297 302 306 309 310 311 311 309 306 304 304 305 307 309 310 311 313 314 316 317 318 318 316 314 316 319 321 323 326 332 332 329 325 323 321 319 318 318 319 319 317 316 314 313 312 310 305 304 308
199 226 242 243 240 236 235 237 238 239 243 258 277 285 282 281 284 290 294 296 296 296 297 297 297 298 298 297 294 292 293 297 304 310 313 308 305 305 312 314 317 319 319 318 316 313 310 308 308 308 309 310 310 309 309 310 311 311 311 308 306 307 311 313 317 326 337 336 333 330 329 327 327 327 324 322 319 314 309 306 305 304 302 297 298 303
215 231 238 238 237 235 237 239 241 239 233 233 256 267 267 271 280 290 299 303 305 307 312 316 319 319 318 315 311 309 316 326 330 328 316 303 298 307 322 328 329 327 325 320 316 313 311 309 308 307 307 308 308 306 304 303 304 304 303 301 302 303 304 305 314 330 338 334 329 328 331 330 329 328 324 320 315 309 306 304 305 307 309 307 300 290
223 232 235 234 234 235 239 250 256 256 241 244 252 254 252 252 264 281 293 296 300 304 310 315 318 318 315 313 316 322 326 323 320 314 304 290 293 314 336 337 334 330 328 322 317 311 308 306 301 299 299 302 301 299 297 299 300 301 300 301 303 304 304 313 324 330 328 325 323 324 327 325 322 319 315 312 309 307 308 310 312 313 315 308 298 288
225 234 236 234 233 233 236 244 245 243 234 242 250 255 255 254 262 275 286 288 294 300 307 311 314 312 306 305 307 313 313 311 311 309 299 304 325 344 347 339 331 325 322 317 313 310 308 304 298 293 294 296 295 293 293 295 297 299 300 300 301 301 302 314 321 324 323 321 320 319 319 318 315 312 309 308 309 311 314 316 317 316 314 307 301 297
225 234 237 231 222 216 225 234 235 235 231 237 244 252 259 261 264 270 275 281 290 298 301 309 314 314 306 305 305 304 304 306 309 309 304 321 341 349 347 336 324 316 310 302 296 295 299 299 297 296 296 293 290 287 287 289 292 294 297 299 300 302 307 312 317 320 321 321 320 317 316 314 313 314 314 315 315 316 317 318 319 318 317 318 319 319
220 227 231 225 214 217 229 232 233 235 240 245 248 251 254 255 256 257 262 272 284 294 298 306 311 310 305 307 307 307 308 311 313 316 320 333 340 342 337 325 316 307 300 292 285 279 278 282 288 292 297 294 288 283 279 284 288 292 294 300 305 311 315 315 316 318 320 320 319 318 316 317 318 320 320 318 316 314 313 315 316 317 318 321 323 324
218 221 223 222 221 223 231 230 231 235 245 251 252 252 251 248 249 254 258 264 279 293 301 307 306 300 296 298 298 302 309 316 322 327 335 340 340 336 329 321 313 307 298 294 289 284 278 274 273 276 282 286 287 285 283 286 288 291 295 306 314 318 317 316 317 318 319 319 319 320 321 326 327 324 319 317 315 313 312 312 312 311 312 314 316 316
217 218 218 216 215 223 236 234 227 227 241 251 256 259 257 251 255 262 268 270 285 301 309 311 307 299 291 284 279 283 299 317 328 335 341 341 339 334 330 325 319 313 306 302 298 294 288 277 267 258 253 259 271 285 294 299 304 308 313 319 319 317 315 314 315 316 317 317 317 318 322 326 323 320 318 320 320 318 316 314 312 309 306 305 305 303
213 213 212 206 207 215 227 226 223 226 236 250 259 265 265 264 274 280 279 279 290 302 307 305 303 300 294 287 281 284 303 322 334 341 343 340 337 333 330 328 327 325 320 316 313 308 301 289 273 254 233 230 251 287 307 315 319 319 319 317 316 315 315 315 315 316 317 315 315 316 320 315 309 306 313 320 320 318 316 314 313 310 305 302 299 296
213 209 204 197 199 208 220 218 219 224 234 245 253 259 265 277 288 291 272 272 280 287 285 292 298 301 300 296 290 289 304 330 342 345 344 343 339 336 333 332 334 335 335 334 335 335 331 325 314 293 254 257 313 339 332 326 322 317 314 316 319 320 319 318 317 318 318 315 315 316 319 316 314 314 321 321 318 315 314 315 315 313 310 308 304 300
213 207 198 193 198 205 213 212 214 219 228 238 245 250 253 267 278 278 274 277 290 293 287 291 297 300 299 295 288 283 293 336 347 347 344 342 339 336 334 335 339 343 344 344 345 347 349 348 341 334 324 342 358 3 348 329 322 321 323 326 328 326 323 319 317 316 315 313 312 314 318 320 322 324 327 322 319 316 316 317 317 315 314 314 313 311